Overview Statistics Trail Chart Weather Telemetry Raw packets
 

This is the latest recevied weather packets stored in our database for station/object DL2AKT-20. If no packets are shown the sender has not sent any weather packets the latest 10 day(s).

<< 1 2 3 4 5 6 >>
Time Temp. Humidity Pressure Rain* Wind** Luminosity Snow
1778001567 20.56° C 49% 1009.9 hPa - - - -
1778000666 21.11° C 49% 1010 hPa - - - -
1777999767 22.22° C 47% 1010.2 hPa - - - -
1777998866 21.67° C 47% 1010.2 hPa - - - -
1777997966 22.22° C 45% 1010.4 hPa - - - -
1777997066 22.22° C 45% 1010.2 hPa - - - -
1777996166 22.22° C 45% 1010.2 hPa - - - -
1777995266 22.78° C 44% 1010.3 hPa - - - -
1777994366 22.22° C 45% 1010.4 hPa - - - -
1777993466 22.78° C 45% 1010.4 hPa - - - -
1777992566 21.67° C 48% 1010.6 hPa - - - -
1777991665 21.67° C 47% 1010.6 hPa - - - -
1777990765 22.78° C 45% 1010.9 hPa - - - -
1777989865 22.78° C 45% 1011 hPa - - - -
1777988965 22.78° C 45% 1011.3 hPa - - - -
1777988064 22.22° C 46% 1011.3 hPa - - - -
1777987164 22.78° C 45% 1011.5 hPa - - - -
1777986264 22.78° C 46% 1011.4 hPa - - - -
1777985367 22.22° C 47% 1011.6 hPa - - - -
1777984467 21.67° C 48% 1011.8 hPa - - - -
1777983567 21.11° C 48% 1011.9 hPa - - - -
1777982667 21.11° C 49% 1012 hPa - - - -
1777981767 20.56° C 49% 1012.1 hPa - - - -
1777980867 20.56° C 51% 1012.3 hPa - - - -
1777979967 20° C 52% 1012.2 hPa - - - -

* Rain since midnight (hover to see other rain measurements)
** Current wind speed in m/s (hover to see current wind gust speed)